Location: Unspecified
(0.0000°N, 0.0000°E)
Time: 09:02:11
(UTC+00:00)

BEESAT 2 - Pass Details

Date: 22 May 2021
Orbit: 493 x 525 km, 64.9° (Epoch: 16 June)

Event Time Altitude Azimuth Distance (km) Brightness Sun altitude
Exits shadow 04:05:26 12° 350° (N) 1,597 ? -25.9°
Drops below altitude 10° 04:05:50 10° 353° (N) 1,735 ? -25.8°
Sets 04:08:13 0° 5° (N) 2,624 ? -25.3°
